EW5412 Weather Reports


time (UTC)temp
C
wind
direction
speed
KPH
gust
KPH
rain 1hr
cm
rain 24hr
cm
rain mn
cm
humidity
%
barometer
mb
20260504191515 23 288 27.4 46.7 0.00 0.00 0.00 48 1001.2
20260504190012 23 311 19.3 40.2 0.00 0.00 0.00 50 1001.5
20260504184514 23 332 22.5 41.8 0.00 0.00 0.00 50 1001.7
20260504183007 22 270 24.1 45.1 0.00 0.00 0.00 52 1001.8
20260504181506 22 302 24.1 40.2 0.00 0.00 0.00 52 1002.0
20260504180006 22 271 16.1 41.8 0.00 0.00 0.00 54 1002.1
20260504174617 22 296 16.1 32.2 0.00 0.00 0.00 55 1002.3
20260504173059 21 304 17.7 33.8 0.00 0.00 0.00 57 1002.5
20260504171555 21 308 19.3 33.8 0.00 0.00 0.00 57 1002.8
20260504081522 10 270 9.7 16.1 0.00 0.00 0.00 75 1006.1
20260504060104 10 288 9.7 17.7 0.00 0.00 0.00 77 1007.8
20260504044600 10 277 3.2 11.3 0.00 0.00 0.00 78 1008.6
20260504043049 10 280 4.8 9.7 0.00 0.00 0.00 79 1008.6
20260504041547 10 233 4.8 12.9 0.00 0.00 0.00 79 1008.4
20260504040044 10 256 6.4 11.3 0.00 0.00 0.00 79 1008.6
20260504034551 10 252 4.8 12.9 0.00 0.00 0.00 80 1008.9
20260504033052 10 257 4.8 11.3 0.00 0.00 0.00 81 1008.9
20260504031541 10 249 8.0 12.9 0.00 0.00 0.00 81 1009.0
20260504030039 9 257 8.0 14.5 0.00 0.00 0.00 82 1009.1
20260504024544 9 243 4.8 9.7 0.00 0.00 0.00 84 1009.2
20260504023038 9 256 3.2 8.0 0.00 0.00 0.00 84 1009.2
20260504021538 9 262 1.6 11.3 0.00 0.00 0.00 84 1009.3
20260504020041 9 257 3.2 9.7 0.00 0.00 0.00 83 1009.2
20260504014539 10 207 3.2 9.7 0.00 0.00 0.00 82 1009.2
20260504013039 10 271 4.8 14.5 0.00 0.00 0.00 82 1009.2
20260504011534 10 252 6.4 12.9 0.00 0.00 0.00 81 1009.2
20260504010046 10 263 9.7 16.1 0.00 0.00 0.00 81 1009.2
20260504004534 10 256 8.0 14.5 0.00 0.00 0.00 80 1009.3
20260504003033 10 229 4.8 12.9 0.00 0.00 0.00 80 1009.3
20260504001532 11 229 6.4 14.5 0.00 0.00 0.00 79 1009.5
20260504000029 11 252 6.4 14.5 0.00 0.00 0.00 80 1009.7
20260503234530 11 256 8.0 19.3 0.00 0.00 0.00 80 1009.7
20260503233026 10 195 8.0 17.7 0.00 0.00 0.00 80 1009.9
20260503231526 11 256 12.9 19.3 0.00 0.00 0.00 78 1010.1
20260503230023 11 257 9.7 19.3 0.00 0.00 0.00 79 1010.3
20260503224522 10 254 6.4 17.7 0.00 0.00 0.00 81 1010.5
20260503223019 10 217 8.0 19.3 0.00 0.00 0.00 81 1010.8
20260503221528 10 250 6.4 16.1 0.00 0.00 0.00 83 1010.9
20260503220019 9 198 9.7 20.9 0.00 0.00 0.00 84 1010.9
20260503214517 8 228 6.4 14.5 0.00 0.00 0.00 85 1010.9
20260503213027 8 245 6.4 16.1 0.00 0.00 0.00 84 1011.0
20260503211519 8 266 9.7 20.9 0.00 0.00 0.00 84 1011.2
20260503210013 8 225 12.9 20.9 0.00 0.00 0.00 85 1011.4
20260503204510 8 267 8.0 16.1 0.00 0.00 0.00 85 1011.9
20260503203007 8 252 9.7 19.3 0.00 0.00 0.00 85 1012.4
20260503201505 8 256 9.7 24.1 0.00 0.00 0.00 83 1013.1
20260503200002 8 280 16.1 25.7 0.00 0.00 0.00 82 1013.6
20260503194600 9 283 16.1 35.4 0.00 0.00 0.00 78 1014.1
20260503193121 10 316 25.7 43.5 0.00 0.00 0.00 74 1014.2